Change the Weather History Date:

Wednesday, March 5, 2014

  Actual Average Record
Temperature  
Mean Temperature 18 °F 33 °F  
Max Temperature 24 °F 41 °F 69 °F (1992)
Min Temperature 12 °F 26 °F 5 °F (1982)
Degree Days  
Heating Degree Days 47 32  
Month to date heating degree days 262 163  
Since 1 July heating degree days 5420 4663  
Cooling Degree Days 0 0  
Month to date cooling degree days 0 0  
Year to date cooling degree days 0 0  
Moisture  
Dew Point 8 °F    
Average Humidity 67    
Maximum Humidity 80    
Minimum Humidity 54    
Precipitation  
Precipitation 0.00 in 0.08 in 1.15 in (1976)
Month to date precipitation 0.13 0.41  
Year to date precipitation 4.09 4.30  
Sea Level Pressure  
Sea Level Pressure 30.44 in    
Wind  
Wind Speed 8 mph (NE)    
Max Wind Speed 14 mph    
Max Gust Speed 18 mph    
Visibility 10 miles    
Events      
T = Trace of Precipitation, MM = Missing Value Source: NWS Daily Summary

Daily Weather History Graph

Daily Weather History Graph

Search for Another Location

Airport or City:

Trip Planner

Search our weather history database for the weather conditions in past years. The results will help you decide how hot, cold, wet, or windy it might be!

Date:

Astronomy

Mar. 05, 2014 Rise Set
Actual Time 7:13 AM EST 6:38 PM EST
Civil Twilight 6:45 AM EST 7:07 PM EST
Nautical Twilight 6:12 AM EST 7:39 PM EST
Astronomical Twilight 5:39 AM EST 8:12 PM EST
Moon 9:31 AM EST (3/5) 11:54 PM EST (3/5)
Length of Visible Light 12h 21m
Length of Day
11h 25m
Waxing Crescent, 23% of the Moon is Illuminated
Mar 5
Waxing Crescent
Mar 8
First Quarter
Mar 16
Full
Mar 23
Last Quarter
Mar 30
New

Hourly Weather History & Observations

Time (EST) Temp. Windchill Dew Point Humidity Pressure Visibility Wind Dir Wind Speed Gust Speed Precip Events Conditions
12:11 AM 19.0 °F - 10.9 °F 71% 30.26 in 10.0 mi Calm Calm - N/A   Overcast
12:53 AM 19.0 °F 12.3 °F 10.9 °F 71% 30.30 in 10.0 mi NNE 4.6 mph - N/A   Overcast
1:53 AM 18.0 °F 9.8 °F 10.9 °F 74% 30.31 in 10.0 mi NNE 5.8 mph - N/A   Mostly Cloudy
2:53 AM 17.1 °F 10.0 °F 12.0 °F 81% 30.33 in 10.0 mi NNE 4.6 mph - N/A   Mostly Cloudy
3:53 AM 17.1 °F 8.7 °F 10.9 °F 77% 30.34 in 9.0 mi NNE 5.8 mph - N/A   Overcast
4:53 AM 17.1 °F 8.7 °F 10.9 °F 77% 30.36 in 10.0 mi NNE 5.8 mph - N/A   Overcast
5:53 AM 16.0 °F 4.4 °F 10.0 °F 77% 30.38 in 10.0 mi NNE 9.2 mph - N/A   Overcast
6:53 AM 16.0 °F 7.4 °F 9.0 °F 74% 30.38 in 10.0 mi NNE 5.8 mph - N/A   Overcast
7:53 AM 16.0 °F 4.4 °F 8.1 °F 71% 30.43 in 10.0 mi NNE 9.2 mph - N/A   Overcast
8:53 AM 16.0 °F 6.3 °F 7.0 °F 68% 30.45 in 10.0 mi NE 6.9 mph - N/A   Overcast
9:53 AM 17.1 °F 8.7 °F 7.0 °F 65% 30.46 in 10.0 mi NE 5.8 mph - N/A   Partly Cloudy
10:53 AM 18.0 °F 6.9 °F 7.0 °F 62% 30.47 in 10.0 mi NE 9.2 mph - N/A   Partly Cloudy
11:53 AM 19.9 °F 12.1 °F 8.1 °F 60% 30.48 in 10.0 mi NE 5.8 mph - N/A   Clear
12:53 PM 21.0 °F 10.6 °F 9.0 °F 60% 30.47 in 10.0 mi East 9.2 mph - N/A   Clear
1:53 PM 21.9 °F 11.7 °F 9.0 °F 58% 30.46 in 10.0 mi ENE 9.2 mph - N/A   Clear
2:53 PM 23.0 °F 13.1 °F 9.0 °F 55% 30.47 in 10.0 mi East 9.2 mph - N/A   Clear
3:53 PM 23.0 °F 13.1 °F 9.0 °F 55% 30.48 in 10.0 mi East 9.2 mph - N/A   Clear
4:53 PM 21.9 °F 9.8 °F 9.0 °F 58% 30.48 in 10.0 mi East 12.7 mph - N/A   Clear
5:53 PM 19.9 °F 9.3 °F 8.1 °F 60% 30.50 in 10.0 mi East 9.2 mph - N/A   Clear
6:53 PM 19.0 °F 9.0 °F 7.0 °F 59% 30.51 in 10.0 mi ENE 8.1 mph - N/A   Clear
7:53 PM 17.1 °F 6.6 °F 3.0 °F 54% 30.53 in 10.0 mi ENE 8.1 mph - N/A   Clear
8:53 PM 15.1 °F 4.2 °F 3.0 °F 59% 30.53 in 10.0 mi ENE 8.1 mph - N/A   Clear
9:53 PM 14.0 °F 2.9 °F 3.9 °F 64% 30.53 in 10.0 mi ENE 8.1 mph - N/A   Clear
10:53 PM 12.0 °F 0.5 °F 3.9 °F 70% 30.53 in 10.0 mi East 8.1 mph - N/A   Clear
11:53 PM 12.9 °F -0.2 °F 5.0 °F 71% 30.53 in 10.0 mi East 10.4 mph - N/A   Clear